• In Portugal
  • List of Countries
  • For 7 days
  • Water Temperature
  • Satellite Maps
  • Weather Map
  • Weather Widgets
  • user-avatar
    Login

    Hourly Weather Tirana

    Today, 17 December, Sunday

    Time Temperature Precipitation Wind Pressure Humidity
    00:00 +11°C° 0.7 mm 1 mps 748 mmHg 93%
    01:00 +11°C° 0.7 mm 1 mps 748 mmHg 93%
    02:00 +11°C° 0.6 mm 1 mps 748 mmHg 93%
    03:00 +10°C° 0.6 mm 1 mps 748 mmHg 93%
    04:00 +10°C° 0.6 mm 1 mps 748 mmHg 93%
    05:00 +10°C° 0.7 mm 1 mps 748 mmHg 93%
    06:00 +9°C° 0.7 mm 2 mps 749 mmHg 93%
    07:00 +8°C° 0.7 mm 2 mps 749 mmHg 93%
    08:00 +9°C° 0.4 mm 2 mps 749 mmHg 90%
    09:00 +9°C° 0.4 mm 2 mps 750 mmHg 86%
    10:00 +9°C° 0.4 mm 3 mps 750 mmHg 83%
    11:00 +10°C° 0.4 mm 3 mps 750 mmHg 79%
    12:00 +10°C° 0.4 mm 3 mps 750 mmHg 75%
    13:00 +11°C° 0.4 mm 4 mps 750 mmHg 71%
    14:00 +10°C° 0.4 mm 4 mps 750 mmHg 75%
    15:00 +8°C° 0.4 mm 4 mps 751 mmHg 79%
    16:00 +9°C° 0.4 mm 3 mps 751 mmHg 84%
    17:00 +8°C° 0.5 mm 3 mps 751 mmHg 86%
    18:00 +8°C° 0.5 mm 3 mps 752 mmHg 88%
    19:00 +7°C° 0.5 mm 3 mps 752 mmHg 90%
    20:00 +6°C° 0.4 mm 4 mps 753 mmHg 89%
    21:00 +6°C° 0.4 mm 4 mps 753 mmHg 88%
    22:00 +5°C° 0.4 mm 5 mps 754 mmHg 87%
    23:00 +5°C° 0.6 mm 5 mps 754 mmHg 85%

    Tomorrow, 18 December, Monday

    Time Temperature Precipitation Wind Pressure Humidity
    00:00 +4°C° 0.6 mm 6 mps 754 mmHg 84%
    01:00 +4°C° 0.6 mm 6 mps 754 mmHg 82%
    02:00 +4°C° 0.6 mm 6 mps 754 mmHg 84%
    03:00 +4°C° 0.6 mm 6 mps 754 mmHg 87%
    04:00 +3°C° 0.6 mm 6 mps 754 mmHg 89%
    05:00 +3°C° 0.6 mm 6 mps 754 mmHg 88%
    06:00 +3°C° 0.6 mm 5 mps 755 mmHg 88%
    07:00 +3°C° 0.6 mm 5 mps 755 mmHg 88%
    08:00 +5°C° 0.4 mm 5 mps 755 mmHg 85%
    09:00 +6°C° 0.4 mm 4 mps 755 mmHg 82%
    10:00 +6°C° 0.4 mm 4 mps 755 mmHg 79%
    11:00 +6°C° 0.3 mm 4 mps 755 mmHg 79%
    12:00 +6°C° 0.3 mm 4 mps 755 mmHg 79%
    13:00 +6°C° 0.3 mm 4 mps 754 mmHg 80%
    14:00 +6°C° 0.3 mm 4 mps 754 mmHg 83%
    15:00 +5°C° 0.3 mm 4 mps 754 mmHg 85%
    16:00 +5°C° 0.3 mm 4 mps 754 mmHg 88%
    17:00 +4°C° 0.2 mm 4 mps 755 mmHg 89%
    18:00 +4°C° 0.2 mm 4 mps 755 mmHg 90%
    19:00 +3°C° 0.2 mm 4 mps 756 mmHg 91%
    20:00 +3°C° 0.1 mm 3 mps 756 mmHg 91%
    21:00 +3°C° 0.1 mm 3 mps 756 mmHg 91%
    22:00 +2°C° 0.1 mm 3 mps 757 mmHg 91%
    23:00 +2°C° 0.1 mm 3 mps 757 mmHg 90%

    Day after tomorrow, 19 December, Tuesday

    Time Temperature Precipitation Wind Pressure Humidity
    00:00 +2°C° 0.1 mm 3 mps 757 mmHg 89%
    01:00 +2°C° 0.1 mm 3 mps 758 mmHg 89%
    02:00 +1°C° 0.1 mm 3 mps 758 mmHg 88%
    03:00 +1°C° 0.1 mm 3 mps 758 mmHg 87%
    04:00 +1°C° 0.1 mm 3 mps 758 mmHg 87%
    05:00 +1°C° 0.1 mm 3 mps 759 mmHg 86%
    06:00 +1°C° 0.1 mm 3 mps 759 mmHg 85%
    07:00 +1°C° 0.1 mm 3 mps 760 mmHg 85%
    08:00 +2°C° 0 mm 3 mps 760 mmHg 80%
    09:00 +3°C° 0 mm 3 mps 760 mmHg 75%
    10:00 +3°C° 0 mm 3 mps 761 mmHg 70%
    11:00 +4°C° 0 mm 3 mps 761 mmHg 68%
    12:00 +4°C° 0 mm 3 mps 761 mmHg 66%
    13:00 +5°C° 0 mm 3 mps 761 mmHg 64%
    14:00 +4°C° 0 mm 3 mps 761 mmHg 67%
    15:00 +3°C° 0 mm 3 mps 761 mmHg 70%
    16:00 +3°C° 0 mm 3 mps 761 mmHg 74%
    17:00 +1°C° 0 mm 4 mps 762 mmHg 75%
    18:00 0°C° 0 mm 4 mps 762 mmHg 76%
    19:00 -1°C° 0 mm 4 mps 762 mmHg 77%
    20:00 -1°C° 0 mm 4 mps 763 mmHg 77%
    21:00 -1°C° 0 mm 4 mps 763 mmHg 77%
    22:00 -1°C° 0 mm 4 mps 763 mmHg 76%
    23:00 -2°C° 0 mm 4 mps 763 mmHg 76%

    20 December, Wednesday

    Time Temperature Precipitation Wind Pressure Humidity
    00:00 -1°C° 0 mm 3 mps 763 mmHg 75%
    01:00 -1°C° 0 mm 3 mps 763 mmHg 75%
    02:00 -1°C° 0 mm 3 mps 763 mmHg 74%
    03:00 -1°C° 0 mm 3 mps 763 mmHg 74%
    04:00 -1°C° 0 mm 3 mps 763 mmHg 73%
    05:00 -1°C° 0 mm 3 mps 763 mmHg 72%
    06:00 -1°C° 0 mm 3 mps 763 mmHg 71%
    07:00 -1°C° 0 mm 2 mps 763 mmHg 71%
    08:00 +1°C° 0 mm 2 mps 763 mmHg 66%
    09:00 +3°C° 0 mm 2 mps 763 mmHg 61%
    10:00 +4°C° 0 mm 2 mps 763 mmHg 56%
    11:00 +5°C° 0 mm 2 mps 762 mmHg 55%
    12:00 +5°C° 0 mm 2 mps 762 mmHg 53%
    13:00 +6°C° 0 mm 2 mps 762 mmHg 51%
    14:00 +5°C° 0 mm 2 mps 762 mmHg 56%
    15:00 +4°C° 0 mm 2 mps 762 mmHg 61%
    16:00 +3°C° 0 mm 2 mps 762 mmHg 66%
    17:00 +3°C° 0 mm 2 mps 763 mmHg 67%
    18:00 +2°C° 0 mm 2 mps 763 mmHg 69%
    19:00 +2°C° 0 mm 2 mps 763 mmHg 71%
    20:00 0°C° 0 mm 3 mps 764 mmHg 71%
    21:00 0°C° 0 mm 3 mps 764 mmHg 72%
    22:00 0°C° 0 mm 3 mps 765 mmHg 72%
    23:00 0°C° 0 mm 3 mps 765 mmHg 72%

    21 December, Thursday

    Time Temperature Precipitation Wind Pressure Humidity
    00:00 -1°C° 0 mm 3 mps 765 mmHg 72%
    01:00 -1°C° 0 mm 3 mps 765 mmHg 71%
    02:00 -1°C° 0 mm 3 mps 765 mmHg 70%
    03:00 -1°C° 0 mm 3 mps 765 mmHg 70%
    04:00 -1°C° 0 mm 3 mps 765 mmHg 69%
    05:00 -1°C° 0 mm 3 mps 765 mmHg 68%
    06:00 -1°C° 0 mm 3 mps 766 mmHg 67%
    07:00 -1°C° 0 mm 3 mps 766 mmHg 65%
    08:00 +1°C° 0 mm 2 mps 766 mmHg 61%
    09:00 +3°C° 0 mm 2 mps 766 mmHg 56%
    10:00 +4°C° 0 mm 2 mps 766 mmHg 51%
    11:00 +5°C° 0 mm 2 mps 766 mmHg 49%
    12:00 +6°C° 0 mm 2 mps 765 mmHg 48%
    13:00 +6°C° 0 mm 2 mps 765 mmHg 46%
    14:00 +5°C° 0 mm 2 mps 765 mmHg 50%
    15:00 +4°C° 0 mm 2 mps 765 mmHg 54%
    16:00 +3°C° 0 mm 2 mps 765 mmHg 58%
    17:00 +2°C° 0 mm 2 mps 765 mmHg 58%
    18:00 +2°C° 0 mm 2 mps 766 mmHg 58%
    19:00 +1°C° 0 mm 2 mps 766 mmHg 57%
    20:00 +1°C° 0 mm 2 mps 766 mmHg 56%
    21:00 +1°C° 0 mm 2 mps 766 mmHg 54%
    22:00 +1°C° 0 mm 2 mps 766 mmHg 53%
    23:00 +1°C° 0 mm 2 mps 766 mmHg 52%

    22 December, Friday

    Time Temperature Precipitation Wind Pressure Humidity
    00:00 +1°C° 0 mm 2 mps 765 mmHg 52%
    01:00 +1°C° 0 mm 2 mps 765 mmHg 51%
    02:00 +1°C° 0 mm 2 mps 765 mmHg 52%
    03:00 +2°C° 0 mm 2 mps 764 mmHg 52%
    04:00 +2°C° 0 mm 2 mps 764 mmHg 53%
    05:00 +2°C° 0 mm 2 mps 764 mmHg 54%
    06:00 +2°C° 0 mm 2 mps 764 mmHg 56%
    07:00 +2°C° 0 mm 2 mps 763 mmHg 57%
    08:00 +4°C° 0 mm 2 mps 763 mmHg 57%
    09:00 +6°C° 0 mm 2 mps 763 mmHg 56%
    10:00 +7°C° 0 mm 2 mps 763 mmHg 56%
    11:00 +9°C° 0 mm 1 mps 762 mmHg 57%
    12:00 +10°C° 0 mm 1 mps 761 mmHg 58%
    13:00 +10°C° 0 mm 1 mps 761 mmHg 59%
    14:00 +9°C° 0 mm 1 mps 760 mmHg 64%
    15:00 +8°C° 0 mm 1 mps 760 mmHg 69%
    16:00 +7°C° 0 mm 1 mps 760 mmHg 74%
    17:00 +7°C° 0 mm 1 mps 759 mmHg 74%
    18:00 +6°C° 0 mm 1 mps 759 mmHg 75%
    19:00 +6°C° 0 mm 1 mps 759 mmHg 76%
    20:00 +5°C° 0.2 mm 2 mps 759 mmHg 78%
    21:00 +5°C° 0.2 mm 2 mps 759 mmHg 80%
    22:00 +5°C° 0.2 mm 2 mps 758 mmHg 81%
    23:00 +5°C° 1.3 mm 2 mps 758 mmHg 84%
    Show more